This is the latest recevied weather packets stored in our database for station/object N3FWE. If no packets are shown the sender has not sent any weather packets the latest 10 day(s).
| Time | Temp. | Humidity | Pressure | Rain* | Wind** | Luminosity | Snow |
|---|---|---|---|---|---|---|---|
| 1777955415 | 15° C | 70% | 1010.1 hPa | 0 mm | - | - | - |
| 1777954816 | 15° C | 69% | 1010 hPa | 0 mm | - | - | - |
| 1777954215 | 15° C | 68% | 1010 hPa | 0 mm | - | - | - |
| 1777953619 | 15° C | 66% | 1009.8 hPa | 0 mm | - | - | - |
| 1777953015 | 15.56° C | 65% | 1009.9 hPa | 0 mm | - | - | - |
| 1777952415 | 15.56° C | 64% | 1010.1 hPa | 0 mm | - | - | - |
| 1777951815 | 16.11° C | 63% | 1009.9 hPa | 0 mm | - | - | - |
| 1777951215 | 16.67° C | 61% | 1009.8 hPa | 0 mm | - | - | - |
| 1777950616 | 17.78° C | 58% | 1009.9 hPa | 0 mm | - | - | - |
| 1777950016 | 18.33° C | 55% | 1009.9 hPa | 0 mm | - | - | - |
| 1777949415 | 18.33° C | 55% | 1009.9 hPa | 0 mm | - | - | - |
| 1777948816 | 18.33° C | 54% | 1009.8 hPa | 0 mm | - | - | - |
| 1777948216 | 18.33° C | 54% | 1009.7 hPa | 0 mm | - | - | - |
| 1777947615 | 17.78° C | 57% | 1009.7 hPa | 0 mm | - | - | - |
| 1777947015 | 17.78° C | 58% | 1009.8 hPa | 0 mm | - | - | - |
| 1777946415 | 17.78° C | 58% | 1009.8 hPa | 0 mm | - | - | - |
| 1777945816 | 18.33° C | 57% | 1009.8 hPa | 0 mm | - | - | - |
| 1777945215 | 18.33° C | 56% | 1009.7 hPa | 0 mm | - | - | - |
| 1777944616 | 18.89° C | 55% | 1009.6 hPa | 0 mm | - | - | - |
| 1777944015 | 19.44° C | 53% | 1009.5 hPa | 0 mm | - | - | - |
| 1777943415 | 19.44° C | 51% | 1009.6 hPa | 0 mm | - | - | - |
| 1777942816 | 20° C | 50% | 1009.6 hPa | 0 mm | - | - | - |
| 1777942215 | 20.56° C | 49% | 1009.4 hPa | 0 mm | - | - | - |
| 1777941614 | 21.11° C | 46% | 1009.2 hPa | 0 mm | - | - | - |
| 1777941014 | 21.11° C | 46% | 1009.2 hPa | 0 mm | - | - | - |
* Rain latest hour (hover to see other rain measurements)
** Current wind speed in m/s (hover to see current wind gust speed)